Regional Weather Roundup
Issued by NWS

Home | Current Version | Previous Version | Text Only | Print | Product List | Glossary On
Versions: 1 2 3 4 5 6 7 8 9 10 11 12 13 14 15 16 17 18 19 20 21 22 23 24 25 26 27 28 29 30 31 32 33 34 35 36 37 38 39 40 41 42 43 44 45 46 47 48 49 50
000
ASUS43 KTOP 260759
RWRKS

WEATHER ROUNDUP FOR KANSAS
NATIONAL WEATHER SERVICE GOODLAND KS
300 AM CDT SUN MAR 26 2017

NOTE:  "FAIR" INDICATES FEW OR NO CLOUDS BELOW 12,000 FEET WITH NO
SIGNIFICANT WEATHER AND/OR OBSTRUCTIONS TO VISIBILITY.

KSZ001>006-013>018-027>032-041>047-260900-
NORTHWEST KANSAS

CITY           SKY/WX    TMP DP  RH WIND       PRES   REMARKS
GOODLAND       CLEAR     38  37  97 S10       29.83F WCI  31
HAYS             N/A     42  39  89 SE6       29.91S
HILL CITY      CLOUDY    41  40  96 E3        29.91S
RUSSELL        CLOUDY    41  39  93 SE5       29.91R FOG
$$

KSZ061>065-074>080-084>089-260900-
SOUTHWEST KANSAS

CITY           SKY/WX    TMP DP  RH WIND       PRES   REMARKS
DODGE CITY     CLOUDY    34  33  96 SE6       29.87S FOG
ELKHART          N/A     38  27  65 SE14        N/A  WCI  30
GARDEN CITY    CLEAR     37  35  92 SE7       29.85F
LIBERAL        CLEAR     43  34  70 E12       29.83F
$$

KSZ066>073-081>083-090>101-260900-
SOUTHEAST KANSAS

CITY           SKY/WX    TMP DP  RH WIND       PRES   REMARKS
CHANUTE        CLOUDY    47  44  90 W8        29.90S
COFFEYVILLE    CLOUDY    47  43  86 CALM      29.92R
HUTCHINSON     CLOUDY    43  41  93 CALM      29.92S
MEDICINE LODGE   N/A     42  39  89 E6        29.89F
NEWTON         CLOUDY    42  42 100 CALM      29.92S FOG
PARSONS        CLOUDY    46  45  96 W3        29.92S
WICHITA INTL   CLOUDY    43  43 100 CALM      29.92R FOG
WICHITA JABRA  CLOUDY    43  42  97 NE3       29.91S FOG
WICHITA MCCONL CLOUDY    45  43  93 CALM      29.91F FOG
WINFIELD       CLOUDY    46  41  82 S3        29.93S
$$

KSZ007>012-019>026-033>040-048>060-102>105-260900-
NORTHEAST KANSAS

CITY           SKY/WX    TMP DP  RH WIND       PRES   REMARKS
CONCORDIA      CLOUDY    40  40 100 CALM      29.91S FOG
EMPORIA        CLOUDY    44  44 100 NW3       29.90R
LAWRENCE       CLOUDY    44  42  93 NW5       29.88F
MANHATTAN      CLOUDY    43  41  93 CALM      29.90F
OLATHE IND     CLOUDY    43  42  97 NW6       29.88S
OLATHE EXE     CLOUDY    43  43 100 NW5       29.87S
SALINA         CLOUDY    44  42  93 W3        29.93S FOG
TOPEKA BILLARD CLOUDY    44  42  93 NW5       29.89S
TOPEKA FORBES  CLOUDY    45  42  89 NW5       29.89R
$$



USA.gov is the U.S. government's official web portal to all federal, state and local government web resources and services.